Le nostre stazioni meteo in Italia

Pubblicità
Il mio iltempo24.it
Pian Rosa, Italia (16052): Temperatura & dewpoint: 10.02.2019 07:00:00 - 16.02.2019 07:00:00 (CET)Pian Rosa, Italia (16052): velocità del vento: 10.02.2019 07:00:00 - 16.02.2019 07:00:00 (CET)Pian Rosa, Italia (16052): direzione del vento: 10.02.2019 07:00:00 - 16.02.2019 07:00:00 (CET)Pian Rosa, Italia (16052): visibility: 10.02.2019 07:00:00 - 16.02.2019 07:00:00 (CET)Pian Rosa, Italia (16052): ore di luce: 10.02.2019 07:00:00 - 16.02.2019 07:00:00 (CET)
Data & Tempo tt [°C] td [°C] ff [km/h] ff [kn] dd vv [km] sd [min]
16.02.2019 07:00:00 -6,0 -30,0 28 15 E 20 -
16.02.2019 06:00:00 -5,4 -30,0 18 10 ENE 10 -
16.02.2019 05:00:00 -5,4 -30,0 18 10 E 10 -
16.02.2019 04:00:00 -5,4 -30,0 4 2 - 10 -
16.02.2019 03:00:00 -5,2 -30,0 4 2 - 10 -
16.02.2019 02:00:00 -4,8 -29,9 4 2 - 10 -
16.02.2019 01:00:00 -4,8 -29,9 5 3 - 10 -
16.02.2019 00:00:00 -5,2 -30,0 9 5 SSE 10 -
15.02.2019 23:00:00 -5,4 -30,0 9 5 SE 10 -
15.02.2019 22:00:00 -5,2 -30,0 9 5 SSO 10 -
15.02.2019 21:00:00 -5,0 -30,0 9 5 ENE 10 -
15.02.2019 20:00:00 -4,4 -30,0 9 5 E 10 -
15.02.2019 19:00:00 -4,6 -30,0 9 5 ENE 10 12
15.02.2019 18:00:00 -5,0 -30,0 9 5 ENE 75 60
15.02.2019 17:00:00 -5,0 -30,0 9 5 ENE 80 60
15.02.2019 16:00:00 -5,0 -30,0 5 3 N 75 60
15.02.2019 15:00:00 -5,0 -30,0 5 3 N 75 60
15.02.2019 14:00:00 -3,4 -24,3 0 0 N 75 60
15.02.2019 13:00:00 -4,8 -25,5 0 0 N 80 60
15.02.2019 12:00:00 -6,0 -23,8 18 10 ENE 80 60
15.02.2019 11:00:00 -6,2 -23,0 18 10 ENE 80 60
15.02.2019 10:00:00 -6,4 -21,9 28 15 ENE 80 54
15.02.2019 09:00:00 -7,2 -21,8 18 10 ENE 75 -
15.02.2019 08:00:00 -7,0 -20,9 28 15 E 80 -
15.02.2019 07:00:00 -7,0 -20,9 5 3 - 10 -
15.02.2019 06:00:00 -7,0 -19,6 4 2 - 10 -
15.02.2019 05:00:00 -7,2 -19,7 5 3 N 10 -
15.02.2019 04:00:00 -7,2 -19,7 4 2 N 15 -
15.02.2019 03:00:00 -7,2 -19,7 4 2 N 15 -
15.02.2019 02:00:00 -6,8 -19,7 4 2 N 15 -
15.02.2019 01:00:00 -6,6 -19,9 5 3 - 15 -
15.02.2019 00:00:00 -6,6 -20,2 4 2 - 15 -
14.02.2019 23:00:00 -6,4 -20,4 5 3 N 15 -
14.02.2019 22:00:00 -6,2 -20,2 5 3 N 15 -
14.02.2019 21:00:00 -5,4 -17,8 4 2 N 15 -
14.02.2019 20:00:00 -6,2 -18,5 4 2 - 10 -
14.02.2019 19:00:00 -5,8 -18,2 5 3 - 10 6
14.02.2019 18:00:00 -5,4 -17,8 4 2 - 80 60
14.02.2019 17:00:00 -5,0 -17,4 4 2 - 80 60
14.02.2019 16:00:00 -4,8 -17,9 5 3 N 75 60
14.02.2019 15:00:00 -4,8 -17,9 4 2 - 80 60
14.02.2019 14:00:00 -5,4 -18,1 9 5 ENE 80 60
14.02.2019 13:00:00 -5,8 -18,5 18 10 ENE 75 60
14.02.2019 12:00:00 -5,8 -17,8 18 10 ENE 80 60
14.02.2019 11:00:00 -6,2 -18,2 18 10 ENE 80 60
14.02.2019 10:00:00 -6,4 -19,7 22 12 ENE 80 54
14.02.2019 09:00:00 -6,8 -19,1 15 8 NE 80 0
14.02.2019 08:00:00 -7,2 -19,4 22 12 ENE 80 -
14.02.2019 07:00:00 -7,0 -18,9 15 8 NE 10 -
14.02.2019 06:00:00 -7,0 -18,9 22 12 NE 10 -
14.02.2019 05:00:00 -7,2 -18,8 18 10 ENE 10 -
14.02.2019 04:00:00 -7,2 -18,8 18 10 ENE 10 -
14.02.2019 03:00:00 -7,2 -18,8 18 10 ENE 10 -
14.02.2019 02:00:00 -7,4 -17,8 4 2 - 10 -
14.02.2019 01:00:00 -7,4 -17,3 5 3 - 10 -
14.02.2019 00:00:00 -7,6 -17,2 4 2 - 10 -
13.02.2019 23:00:00 -7,6 -18,0 4 2 - 10 -
13.02.2019 22:00:00 -7,6 -14,9 18 10 ENE 10 -
13.02.2019 21:00:00 -7,4 -14,7 26 14 ENE 10 -
13.02.2019 20:00:00 -7,4 -15,1 11 6 NE 10 -
13.02.2019 19:00:00 -7,6 -14,9 15 8 NE 10 -
13.02.2019 18:00:00 -7,4 -14,9 11 6 NE 80 60
13.02.2019 17:00:00 -7,0 -15,0 4 2 - 80 60
13.02.2019 16:00:00 -6,8 -14,5 13 7 NE 80 60
13.02.2019 15:00:00 -6,8 -14,8 15 8 NNE 80 60
13.02.2019 14:00:00 -6,6 -15,1 4 2 - 80 60
13.02.2019 13:00:00 -6,4 -14,9 9 5 E 80 60
13.02.2019 12:00:00 -6,6 -15,1 9 5 ENE 80 60
13.02.2019 11:00:00 -6,8 -15,3 9 5 ENE 80 60
13.02.2019 10:00:00 -7,0 -15,4 0 0 N 80 42
13.02.2019 09:00:00 -7,6 -16,0 9 5 ENE 80 -
13.02.2019 08:00:00 -7,8 -16,2 9 5 ENE 80 -
13.02.2019 07:00:00 -8,4 -16,7 9 5 ENE 30 -
13.02.2019 06:00:00 -8,0 -16,1 0 0 N 10 -
13.02.2019 05:00:00 -9,8 -16,9 0 0 N 10 -
13.02.2019 04:00:00 -9,8 -16,9 0 0 N 10 -
13.02.2019 03:00:00 -10,0 -17,3 0 0 N 10 -
13.02.2019 02:00:00 -10,8 -18,5 0 0 N 10 -
13.02.2019 01:00:00 -10,4 -14,8 0 0 N 10 -
13.02.2019 00:00:00 -10,0 -13,6 4 2 - 10 -
12.02.2019 23:00:00 -9,8 -13,4 37 20 NE 10 -
12.02.2019 22:00:00 -10,8 -13,1 37 20 NE 10 -
12.02.2019 21:00:00 -11,2 -14,3 55 30 E 10 -
12.02.2019 20:00:00 -11,8 -20,6 55 30 E 10 -
12.02.2019 19:00:00 -12,2 -27,8 55 30 ESE 20 -
12.02.2019 18:00:00 -13,0 -30,0 74 40 E 80 48
12.02.2019 17:00:00 -13,6 -29,9 83 45 NE 80 60
12.02.2019 16:00:00 -13,8 -30,0 74 40 NNE 80 60
12.02.2019 15:00:00 -13,6 -30,0 74 40 NNE 80 60
12.02.2019 14:00:00 -13,2 -30,0 74 40 NNE 80 60
12.02.2019 13:00:00 -13,0 -30,0 55 30 NE 80 60
12.02.2019 12:00:00 -13,2 -30,0 65 35 NE 80 60
12.02.2019 11:00:00 -13,6 -30,0 65 35 NE 80 60
12.02.2019 10:00:00 -14,0 -30,0 55 30 NE 80 24
12.02.2019 09:00:00 -14,6 -26,7 55 30 NE 80 0
12.02.2019 08:00:00 -14,8 -22,9 46 25 NNE 10 -
12.02.2019 07:00:00 -14,8 -15,4 46 25 NE 10 -
12.02.2019 06:00:00 -15,8 -15,8 65 35 NE 10 -
12.02.2019 05:00:00 -16,2 -16,2 65 35 ESE 10 -
12.02.2019 04:00:00 -16,6 -16,6 74 40 ESE 10 -
12.02.2019 03:00:00 -17,8 -17,8 74 40 ENE 10 -
12.02.2019 02:00:00 -18,0 -18,0 74 40 ENE 10 -
12.02.2019 01:00:00 -18,6 -18,6 74 40 ENE 0,1 -
12.02.2019 00:00:00 -18,6 -18,6 74 40 ENE 0,1 -
11.02.2019 23:00:00 -18,8 -18,8 83 45 ENE 0,1 -
11.02.2019 22:00:00 -19,0 -19,0 74 40 ENE 0,1 -
11.02.2019 21:00:00 -19,2 -19,2 74 40 ENE 0,1 -
11.02.2019 20:00:00 -19,0 -19,0 83 45 NE 0,1 -
11.02.2019 19:00:00 -18,8 -18,8 74 40 NNE 0,1 0
11.02.2019 18:00:00 -18,8 -18,8 74 40 NNE 0,1 0
11.02.2019 17:00:00 -18,8 -18,8 55 30 NNE 0,1 0
11.02.2019 16:00:00 -18,8 -18,8 65 35 NNE 0,1 0
11.02.2019 15:00:00 -18,8 -18,8 65 35 NNE 0,1 0
11.02.2019 14:00:00 -19,0 -19,0 74 40 NNE 0,1 0
11.02.2019 13:00:00 -19,4 -19,4 74 40 N 0,1 0
11.02.2019 12:00:00 -19,4 -19,4 65 35 NE 0,1 0
11.02.2019 11:00:00 -19,4 -19,4 74 40 N 0,1 0
11.02.2019 10:00:00 -19,4 -19,4 74 40 N 0,1 0
11.02.2019 09:00:00 -19,0 -19,0 55 30 N 0,1 -
11.02.2019 08:00:00 -19,6 -19,6 74 40 N 0,1 -
11.02.2019 07:00:00 -18,8 -18,8 55 30 N 0,1 -
11.02.2019 06:00:00 -18,2 -18,2 46 25 NNO 0,1 -
11.02.2019 05:00:00 -18,0 -18,0 65 35 N 0,1 -
11.02.2019 04:00:00 -17,8 -17,8 65 35 N 0,1 -
11.02.2019 03:00:00 -17,4 -17,4 65 35 N 0,1 -
11.02.2019 02:00:00 -16,8 -16,8 55 30 N 0,1 -
11.02.2019 01:00:00 -16,2 -16,2 46 25 N 0,1 -
11.02.2019 00:00:00 -16,0 -16,0 37 20 N 0,1 -
10.02.2019 23:00:00 -16,0 -16,0 46 25 N 0,1 -
10.02.2019 22:00:00 -15,4 -15,4 108 58 N 0,1 -
10.02.2019 21:00:00 -15,0 -15,0 55 30 NNE 0,1 -
10.02.2019 20:00:00 -12,2 -12,2 18 10 ONO 0,1 -
10.02.2019 19:00:00 -11,4 -11,4 37 20 O 0,1 -
10.02.2019 18:00:00 -10,4 -10,4 55 30 NO 0,1 0
10.02.2019 17:00:00 -10,4 -10,4 55 30 O 0,1 0
10.02.2019 16:00:00 -10,6 -10,6 55 30 O 0,1 0
10.02.2019 15:00:00 -10,4 -10,4 55 30 OSO 0,5 0
10.02.2019 14:00:00 -10,4 -10,4 55 30 O 6 0
10.02.2019 13:00:00 -10,2 -10,2 52 28 NNO 10 0
10.02.2019 12:00:00 -10,6 -10,6 55 30 N 10 0
10.02.2019 11:00:00 -10,8 -10,8 59 32 OSO 20 0
10.02.2019 10:00:00 -10,8 -10,8 55 30 N 10 0
10.02.2019 09:00:00 -11,0 -12,3 55 30 N 30 0
10.02.2019 08:00:00 -11,0 -20,1 55 30 O 10 0
10.02.2019 07:00:00 -11,0 -26,0 46 25 NO 10 -

tt = Temperatura
td = dewpoint
ff = velocità del vento
dd = direzione del vento
vv = visibility
sd = ore di luce

Stazioni seguenti

WeatherPro
AMSI
MeteoEarth